This is the latest recevied weather packets stored in our database for station/object K7LDN-13. If no packets are shown the sender has not sent any weather packets the latest 10 day(s).
| Time | Temp. | Humidity | Pressure | Rain* | Wind** | Luminosity | Snow |
|---|---|---|---|---|---|---|---|
| 1778018939 | 12.78° C | 54% | 1013.1 hPa | 0 mm | - | 114 W/m² | - |
| 1778018636 | 13.33° C | 52% | 1013.3 hPa | 0 mm | - | 96 W/m² | - |
| 1778018334 | 13.33° C | 48% | 1013.3 hPa | 0 mm | - | 132 W/m² | - |
| 1778018032 | 13.33° C | 48% | 1013.2 hPa | 0 mm | - | 164 W/m² | - |
| 1778017729 | 13.33° C | 48% | 1013.1 hPa | 0 mm | - | 132 W/m² | - |
| 1778017426 | 13.33° C | 48% | 1013.2 hPa | 0 mm | - | 130 W/m² | - |
| 1778017124 | 13.33° C | 50% | 1013.3 hPa | 0 mm | - | 174 W/m² | - |
| 1778016822 | 13.33° C | 50% | 1013 hPa | 0 mm | - | 139 W/m² | - |
| 1778016517 | 13.33° C | 49% | 1013.4 hPa | 0 mm | - | 153 W/m² | - |
| 1778016214 | 13.89° C | 48% | 1013.3 hPa | 0 mm | - | 167 W/m² | - |
| 1778015910 | 13.89° C | 49% | 1013.2 hPa | 0 mm | - | 252 W/m² | - |
| 1778015609 | 13.89° C | 49% | 1013.2 hPa | 0 mm | - | 273 W/m² | - |
| 1778015305 | 13.33° C | 50% | 1013.2 hPa | 0 mm | - | 274 W/m² | - |
| 1778015002 | 13.33° C | 51% | 1013.4 hPa | 0 mm | - | 256 W/m² | - |
| 1778014698 | 13.33° C | 52% | 1013.3 hPa | 0 mm | - | 224 W/m² | - |
| 1778014397 | 12.78° C | 51% | 1013.3 hPa | 0 mm | - | 178 W/m² | - |
| 1778014093 | 13.33° C | 49% | 1013.4 hPa | 0 mm | - | 161 W/m² | - |
| 1778013791 | 13.33° C | 50% | 1013.4 hPa | 0 mm | - | 146 W/m² | - |
| 1778013488 | 12.78° C | 49% | 1013.2 hPa | 0 mm | - | 173 W/m² | - |
| 1778013185 | 12.78° C | 51% | 1013.4 hPa | 0 mm | - | 188 W/m² | - |
| 1778012881 | 12.78° C | 50% | 1013.4 hPa | 0 mm | - | 210 W/m² | - |
| 1778012577 | 12.78° C | 50% | 1013.3 hPa | 0 mm | - | 203 W/m² | - |
| 1778012274 | 12.78° C | 51% | 1013.5 hPa | 0 mm | - | 208 W/m² | - |
| 1778011971 | 12.78° C | 50% | 1013.5 hPa | 0 mm | - | 211 W/m² | - |
| 1778011670 | 12.78° C | 52% | 1013.5 hPa | 0 mm | - | 210 W/m² | - |
* Rain latest hour (hover to see other rain measurements)
** Current wind speed in m/s (hover to see current wind gust speed)